period_start,C,m1,H,J0,J1,J2,J3,J4,J5,JA,JB,JC,JD,JJ,JK,JN,#
2018-03-12 00:03:54,0.10,7.08,0.00,17.26,20.85,24.13,14.37,48.94,1020.03,2047.01,1528.96,1816.61,2039.22,600.04,609.94,57.17,0000 0000 0000 0000 000000
2018-03-12 00:08:56,0.09,7.08,0.00,17.27,20.84,24.14,14.32,48.87,1020.02,2047.04,1528.09,1816.00,2038.63,599.87,609.73,57.22,0000 0000 0000 0000 000000
2018-03-12 00:13:57,0.12,7.09,0.00,17.27,20.84,24.16,14.27,48.85,1020.02,2047.05,1527.29,1815.30,2037.96,599.82,609.59,57.27,0000 0000 0000 0000 000000
2018-03-12 00:18:58,0.07,7.09,0.00,17.27,20.84,24.16,14.28,48.83,1020.03,2047.07,1526.69,1814.90,2037.17,599.93,609.77,57.32,0000 0000 0000 0000 000000
2018-03-12 00:24:00,0.12,7.10,0.00,17.29,20.84,24.16,14.39,48.90,1020.03,2047.07,1525.86,1814.09,2036.45,600.12,609.77,57.37,0000 0000 0000 0000 000000
2018-03-12 00:29:01,0.09,7.10,0.00,17.29,20.84,24.13,14.32,48.87,1020.03,2047.09,1524.97,1813.63,2035.92,600.04,609.86,57.42,0000 0000 0000 0000 000000
2018-03-12 00:34:03,0.10,7.11,0.00,17.31,20.84,24.14,14.33,48.95,1020.03,2047.10,1524.08,1813.01,2035.08,600.11,609.85,57.47,0000 0000 0000 0000 000000
2018-03-12 00:39:04,0.14,7.12,0.00,17.32,20.84,24.15,14.33,48.92,1020.03,2047.13,1523.23,1812.31,2034.39,600.19,609.93,57.52,0000 0000 0000 0000 000000
2018-03-12 00:44:05,0.09,7.12,0.00,17.33,20.84,24.19,14.21,48.81,1020.03,2047.27,1522.40,1811.90,2033.88,599.94,609.79,57.57,0000 0000 0000 0000 000000
2018-03-12 00:49:06,0.10,7.13,0.00,17.34,20.84,24.18,14.38,48.91,1020.03,2047.23,1521.72,1811.09,2033.08,600.14,609.86,57.62,0000 0000 0000 0000 000000
2018-03-12 00:54:07,0.07,7.13,0.00,17.35,20.85,24.18,14.34,49.05,1020.03,2047.11,1521.01,1810.67,2032.36,600.03,609.64,57.67,0000 0000 0000 0000 000000
2018-03-12 00:59:09,0.08,7.14,0.00,17.37,20.85,24.10,14.33,49.15,1020.03,2047.09,1520.27,1810.01,2031.75,600.08,609.82,57.72,0000 0000 0000 0000 000000
2018-03-12 01:04:10,0.13,7.14,0.00,17.38,20.87,24.12,14.29,48.98,1020.03,2047.05,1519.44,1809.26,2030.96,600.32,609.87,57.77,0000 0000 0000 0000 000000
2018-03-12 01:09:11,0.12,7.15,0.00,17.39,20.87,24.13,14.37,48.98,1020.03,2047.03,1518.49,1808.73,2030.11,600.37,609.94,57.82,0000 0000 0000 0000 000000
2018-03-12 01:14:12,0.11,7.15,0.00,17.41,20.87,24.13,14.29,48.97,1020.03,2047.01,1517.67,1808.02,2029.39,600.12,609.53,57.87,0000 0000 0000 0000 000000
2018-03-12 01:19:14,0.10,7.16,0.00,17.43,20.89,24.16,14.30,48.80,1020.02,2047.02,1516.89,1807.44,2028.77,599.88,609.38,57.92,0000 0000 0000 0000 000000
2018-03-12 01:24:15,0.08,7.17,0.00,17.46,20.89,24.13,14.25,48.86,1020.03,2047.02,1516.02,1806.90,2028.02,600.02,609.45,57.97,0000 0000 0000 0000 000000
2018-03-12 01:29:16,0.14,7.17,0.00,17.48,20.90,24.15,14.30,48.94,1020.03,2047.01,1515.13,1806.12,2027.27,600.06,609.46,58.03,0000 0000 0000 0000 000000
2018-03-12 01:34:17,0.11,7.18,0.00,17.51,20.92,24.16,14.26,48.99,1020.04,2047.00,1514.29,1805.65,2026.71,599.72,609.12,58.08,0000 0000 0000 0000 000000
2018-03-12 01:39:19,0.09,7.18,0.00,17.53,20.92,24.18,14.35,48.89,1020.04,2047.00,1513.52,1804.99,2025.97,600.11,609.38,58.13,0000 0000 0000 0000 000000
2018-03-12 01:44:20,0.11,7.19,0.00,17.56,20.94,24.18,14.31,48.98,1020.04,2047.00,1512.82,1804.29,2025.13,599.96,609.24,58.18,0000 0000 0000 0000 000000
2018-03-12 01:49:22,0.07,7.19,0.00,17.58,20.94,24.17,14.39,48.86,1020.04,2047.00,1512.04,1803.93,2024.55,600.02,609.21,58.23,0000 0000 0000 0000 000000
2018-03-12 01:54:23,0.11,7.20,0.00,17.60,20.97,24.16,14.33,48.78,1020.04,2047.00,1511.35,1803.14,2023.99,600.18,609.16,58.28,0000 0000 0000 0000 000000
2018-03-12 01:59:25,0.08,7.20,0.00,17.64,20.98,24.19,14.27,48.73,1020.04,2047.00,1510.74,1802.80,2023.17,599.78,608.91,58.33,0000 0000 0000 0000 000000
2018-03-12 02:04:26,0.10,7.21,0.00,17.67,20.99,24.23,14.21,48.67,1020.04,2047.00,1509.92,1802.04,2022.64,599.70,608.75,58.38,0000 0000 0000 0000 000000
2018-03-12 02:09:27,0.10,7.21,0.00,17.69,21.01,24.19,14.28,48.84,1020.04,2047.00,1509.07,1801.64,2022.01,599.92,608.82,58.43,0000 0000 0000 0000 000000
2018-03-12 02:14:28,0.10,7.22,0.00,17.72,21.02,24.21,14.33,48.71,1020.04,2047.00,1508.46,1801.01,2021.33,600.09,609.01,58.48,0000 0000 0000 0000 000000
2018-03-12 02:19:30,0.07,7.22,0.00,17.75,21.04,24.23,14.21,48.70,1020.04,2047.00,1507.92,1800.54,2020.85,599.66,608.47,58.53,0000 0000 0000 0000 000000
2018-03-12 02:24:31,0.09,7.23,0.00,17.78,21.06,24.23,14.35,48.86,1020.04,2047.00,1507.09,1800.00,2020.05,600.24,608.94,58.58,0000 0000 0000 0000 000000
2018-03-12 02:29:33,0.12,7.23,0.00,17.81,21.07,24.27,14.29,48.75,1020.04,2047.00,1506.44,1799.47,2019.58,600.14,608.89,58.63,0000 0000 0000 0000 000000
2018-03-12 02:34:34,0.04,7.24,0.00,17.84,21.09,24.27,14.32,48.84,1020.04,2046.99,1505.85,1799.00,2019.00,600.09,608.95,58.68,0000 0000 0000 0000 000000
2018-03-12 02:39:35,0.12,7.24,0.00,17.87,21.12,24.29,14.08,48.73,1020.04,2046.98,1505.04,1798.36,2018.32,599.52,608.12,58.73,0000 0000 0000 0000 000000
2018-03-12 02:44:37,0.06,7.24,0.00,17.90,21.13,24.31,14.29,48.84,1020.04,2046.97,1504.43,1797.97,2017.81,599.99,608.56,58.78,0000 0000 0000 0000 000000
2018-03-12 02:49:38,0.09,7.25,0.00,17.93,21.16,24.34,14.22,48.90,1020.05,2046.96,1503.93,1797.23,2017.05,599.83,608.24,58.83,0000 0000 0000 0000 000000
2018-03-12 02:54:39,0.08,7.25,0.00,17.95,21.18,24.34,14.23,48.92,1020.04,2046.82,1503.08,1796.94,2016.39,599.69,608.14,58.89,0000 0000 0000 0000 000000
2018-03-12 02:59:41,0.04,7.26,0.00,17.99,21.20,24.36,14.22,48.84,1020.04,2046.43,1502.33,1796.12,2015.97,599.98,608.39,58.94,0000 0000 0000 0000 000000
2018-03-12 03:04:42,0.05,7.26,0.00,18.02,21.23,24.37,14.30,48.92,1020.05,2046.15,1501.76,1795.76,2015.20,600.02,608.43,58.99,0000 0000 0000 0000 000000
2018-03-12 03:09:44,0.08,7.26,0.00,18.05,21.25,24.39,14.27,49.05,1020.06,2046.04,1501.03,1795.04,2014.64,600.04,608.17,59.04,0000 0000 0000 0000 000000
2018-03-12 03:14:45,0.10,7.27,0.00,18.08,21.28,24.41,14.36,49.05,1020.05,2046.01,1500.33,1794.66,2013.99,600.27,608.32,59.09,0000 0000 0000 0000 000000
2018-03-12 03:19:46,0.07,7.27,0.00,18.11,21.31,24.44,14.26,48.96,1020.05,2046.00,1499.87,1794.02,2013.26,600.10,608.12,59.14,0000 0000 0000 0000 000000
2018-03-12 03:24:47,0.10,7.28,0.00,18.14,21.33,24.45,14.19,48.89,1020.09,2046.00,1499.07,1793.56,2012.81,599.73,607.72,59.19,0000 0000 0000 0000 000000
2018-03-12 03:29:49,0.09,7.28,0.00,18.17,21.36,24.49,14.15,48.88,1020.22,2045.99,1498.36,1793.01,2012.04,600.05,608.15,59.24,0000 0000 0000 0000 000000
2018-03-12 03:34:50,0.10,7.29,0.00,18.22,21.39,24.50,14.24,48.92,1020.37,2045.98,1497.86,1792.35,2011.41,599.94,608.03,59.29,0000 0000 0000 0000 000000
2018-03-12 03:39:51,0.05,7.29,0.00,18.25,21.42,24.51,14.21,48.83,1020.43,2045.95,1497.07,1791.99,2010.90,599.95,608.02,59.34,0000 0000 0000 0000 000000
2018-03-12 03:44:53,0.10,7.29,0.00,18.28,21.45,24.54,14.19,48.82,1020.38,2045.83,1496.42,1791.45,2010.07,599.76,607.63,59.39,0000 0000 0000 0000 000000
2018-03-12 03:49:54,-0.02,7.30,0.00,18.31,21.48,24.57,14.31,48.83,1020.47,2045.41,1495.88,1790.95,2009.55,600.01,607.95,59.44,0000 0000 0000 0000 000000
2018-03-12 03:54:56,0.09,7.30,0.00,18.35,21.51,24.59,14.23,48.88,1020.47,2045.09,1495.08,1790.22,2008.97,600.20,607.98,59.49,0000 0000 0000 0000 000000
2018-03-12 03:59:57,0.08,7.30,0.00,18.40,21.54,24.63,14.25,48.97,1020.49,2045.02,1494.50,1789.95,2008.14,600.15,607.81,59.54,0000 0000 0000 0000 000000
2018-03-12 04:04:58,0.08,7.31,0.00,18.43,21.57,24.65,14.19,48.87,1020.52,2045.00,1493.97,1789.17,2007.68,599.97,607.58,59.59,0000 0000 0000 0000 000000
2018-03-12 04:09:59,0.08,7.31,0.00,18.46,21.60,24.68,14.20,48.88,1020.52,2045.00,1493.17,1788.87,2007.01,599.73,607.39,59.64,0000 0000 0000 0000 000000
2018-03-12 04:15:01,0.13,7.32,0.00,18.49,21.63,24.71,14.21,48.92,1020.52,2044.99,1492.50,1788.06,2006.23,599.93,607.49,59.69,0000 0000 0000 0000 000000
2018-03-12 04:20:02,0.07,7.32,0.00,18.53,21.66,24.74,14.19,48.98,1020.52,2044.98,1491.88,1787.69,2005.77,599.77,607.28,59.74,0000 0000 0000 0000 000000
2018-03-12 04:25:03,0.06,7.33,0.00,18.56,21.68,24.77,14.22,48.97,1020.52,2044.83,1491.07,1787.02,2005.01,599.92,607.48,59.80,0000 0000 0000 0000 000000
2018-03-12 04:30:04,0.32,7.34,0.00,18.57,21.71,24.80,14.24,48.96,1020.52,2044.32,1488.81,1785.81,2003.44,600.13,607.51,59.85,0000 0000 0000 0000 000000
2018-03-12 05:08:29,-3333.30,0.00,0.00,16.14,21.68,19.97,14.14,47.55,1019.76,2052.07,3521.44,3133.96,3603.83,593.14,604.99,0.01,0000 0000 0000 0000 000000
2018-03-12 05:13:30,0.00,0.00,0.00,16.12,21.38,20.87,14.31,47.38,1019.99,2050.01,3512.39,3128.39,3597.65,600.25,612.48,0.06,0000 0000 0000 0000 000000
2018-03-12 05:18:31,0.02,0.01,0.00,16.08,21.12,21.23,14.37,47.10,1020.02,2050.01,3509.57,3127.05,3595.97,600.33,612.65,0.11,0000 0000 0000 0000 000000
2018-03-12 05:23:32,0.05,0.01,0.00,16.04,20.89,21.49,14.28,47.02,1020.03,2050.69,3507.42,3126.11,3594.88,599.95,612.35,0.16,0000 0000 0000 0000 000000
2018-03-12 05:28:33,0.57,0.05,0.00,16.03,20.69,21.87,14.31,47.00,1020.05,2051.01,3471.78,3104.70,3570.81,599.79,612.41,0.21,0000 0000 0000 0000 000000
2018-03-12 05:33:34,3.38,0.29,0.00,16.07,20.53,22.33,14.33,46.92,1020.06,2051.42,3360.10,3035.70,3493.35,599.75,612.13,0.26,0000 0000 0000 0000 000000
2018-03-12 05:38:36,0.72,0.35,0.00,16.16,20.39,22.48,14.34,46.89,1020.11,2052.01,3352.34,3030.99,3488.09,599.88,612.10,0.31,0000 0000 0000 0000 000000
2018-03-12 05:43:37,0.15,0.35,0.00,16.25,20.28,22.69,14.32,46.84,1020.29,2052.48,3350.21,3029.92,3486.86,600.01,612.21,0.36,0000 0000 0000 0000 000000
2018-03-12 05:48:38,0.50,0.37,0.00,16.37,20.19,22.76,14.33,46.72,1020.45,2052.98,3342.70,3025.90,3481.68,600.12,612.11,0.41,0000 0000 0000 0000 000000
2018-03-12 05:53:39,0.19,0.39,0.00,16.50,20.12,22.81,14.18,46.52,1020.51,2053.18,3334.67,3021.45,3476.13,599.92,611.58,0.46,0000 0000 0000 0000 000000
2018-03-12 05:58:41,0.14,0.40,0.30,16.64,20.07,22.84,14.22,46.50,1020.52,2053.85,3332.41,3020.13,3474.56,599.75,611.12,0.51,0000 0000 0000 0000 000000
2018-03-12 06:03:42,0.12,0.40,1.00,16.77,20.03,22.82,14.16,46.38,1020.52,2053.99,3329.79,3018.70,3472.69,599.49,610.68,0.56,0000 0000 0000 0000 000000
2018-03-12 06:08:43,0.13,0.41,1.00,16.91,20.01,22.84,14.25,46.41,1020.52,2053.99,3326.99,3016.93,3470.49,599.96,611.00,0.61,0000 0000 0000 0000 000000
2018-03-12 06:13:45,0.20,0.42,1.00,17.03,19.99,22.86,14.19,46.37,1020.52,2054.02,3322.94,3014.33,3467.51,599.70,610.32,0.66,0000 0000 0000 0000 000000
2018-03-12 06:18:46,0.19,0.43,1.00,17.15,19.99,22.90,14.17,46.15,1020.56,2054.03,3318.49,3011.44,3464.13,599.81,610.23,0.71,0000 0000 0000 0000 000000
2018-03-12 06:23:47,0.18,0.44,1.00,17.26,20.00,22.94,14.26,46.16,1020.62,2054.12,3314.52,3008.83,3461.12,599.93,610.05,0.76,0000 0000 0000 0000 000000
2018-03-12 06:28:48,0.16,0.44,0.67,17.37,20.02,22.99,14.16,46.10,1020.67,2054.18,3310.94,3006.62,3458.35,599.94,610.07,0.81,0000 0000 0000 0000 000000
2018-03-12 06:33:50,0.13,0.45,0.00,17.46,20.04,23.05,14.23,46.10,1020.90,2054.11,3307.60,3004.59,3455.97,600.29,610.19,0.86,0000 0000 0000 0000 000000
2018-03-12 06:38:51,0.14,0.46,0.00,17.54,20.07,23.12,14.27,46.00,1021.00,2054.07,3304.33,3002.47,3453.50,600.21,610.06,0.91,0000 0000 0000 0000 000000
2018-03-12 06:43:53,0.14,0.47,0.00,17.62,20.10,23.19,14.22,45.84,1021.01,2054.04,3301.10,3000.34,3450.97,599.98,609.83,0.96,0000 0000 0000 0000 000000
2018-03-12 06:48:54,0.16,0.47,0.00,17.70,20.14,23.23,14.19,45.90,1021.01,2054.04,3297.60,2998.04,3448.28,600.16,609.67,1.01,0000 0000 0000 0000 000000
2018-03-12 06:53:55,0.17,0.48,0.00,17.77,20.18,23.29,14.12,45.76,1021.02,2054.00,3293.82,2995.49,3445.33,599.74,609.11,1.06,0000 0000 0000 0000 000000
2018-03-12 06:58:56,0.20,0.49,0.00,17.84,20.22,23.37,14.21,45.72,1021.02,2054.00,3289.65,2992.74,3442.11,599.86,609.13,1.11,0000 0000 0000 0000 000000
2018-03-12 07:03:57,0.21,0.50,0.00,17.89,20.27,23.42,14.21,45.68,1021.04,2053.99,3285.06,2989.67,3438.52,599.92,609.11,1.16,0000 0000 0000 0000 000000
2018-03-12 07:08:59,0.23,0.51,0.00,17.95,20.32,23.48,14.13,45.58,1021.08,2053.95,3280.25,2986.39,3434.69,599.68,608.71,1.21,0000 0000 0000 0000 000000
2018-03-12 07:14:00,0.20,0.52,0.00,18.00,20.37,23.55,14.15,45.57,1021.17,2053.58,3274.98,2982.93,3430.64,599.96,608.85,1.26,0000 0000 0000 0000 000000
2018-03-12 07:19:01,0.19,0.53,0.00,18.05,20.42,23.59,14.07,45.48,1021.12,2053.06,3269.84,2979.53,3426.77,599.67,608.53,1.31,0000 0000 0000 0000 000000
2018-03-12 07:24:03,0.23,0.55,0.00,18.10,20.47,23.68,14.16,45.52,1021.29,2053.01,3264.82,2976.21,3422.87,599.92,608.82,1.36,0000 0000 0000 0000 000000
2018-03-12 07:29:04,0.23,0.56,0.00,18.14,20.52,23.73,14.25,45.52,1021.36,2053.00,3259.88,2972.82,3418.93,600.30,608.96,1.41,0000 0000 0000 0000 000000
2018-03-12 07:34:06,0.25,0.57,0.00,18.18,20.58,23.81,14.15,45.73,1021.47,2052.99,3254.55,2969.26,3414.74,599.89,608.67,1.47,0000 0000 0000 0000 000000
2018-03-12 07:39:07,0.24,0.58,0.00,18.22,20.63,23.86,14.13,45.58,1021.48,2052.68,3248.89,2965.49,3410.27,600.11,608.82,1.52,0000 0000 0000 0000 000000
2018-03-12 07:44:09,0.20,0.59,0.00,18.26,20.69,23.92,14.16,45.47,1021.50,2052.10,3243.43,2961.85,3406.02,599.88,608.51,1.57,0000 0000 0000 0000 000000
2018-03-12 07:49:10,0.24,0.60,0.00,18.30,20.74,23.98,14.20,45.45,1021.50,2052.01,3238.04,2958.22,3401.87,599.97,608.51,1.62,0000 0000 0000 0000 000000
2018-03-12 07:54:11,0.23,0.62,0.00,18.33,20.80,24.03,14.15,45.47,1021.50,2052.00,3232.98,2954.83,3397.93,599.98,608.49,1.67,0000 0000 0000 0000 000000
2018-03-12 07:59:13,0.22,0.63,0.00,18.35,20.85,24.08,14.17,45.48,1021.50,2051.97,3228.18,2951.73,3394.27,599.90,608.43,1.72,0000 0000 0000 0000 000000
2018-03-12 08:04:14,0.19,0.64,0.00,18.39,20.90,24.13,14.15,45.41,1021.50,2051.73,3223.31,2948.52,3390.51,600.20,608.59,1.77,0000 0000 0000 0000 000000
2018-03-12 08:09:15,0.18,0.65,0.00,18.42,20.94,24.17,14.11,45.42,1021.53,2051.15,3218.43,2945.25,3386.74,599.80,608.10,1.82,0000 0000 0000 0000 000000
2018-03-12 08:14:16,0.22,0.66,0.00,18.44,20.99,24.21,14.21,45.55,1021.62,2051.01,3213.47,2942.05,3382.93,600.22,608.56,1.87,0000 0000 0000 0000 000000
2018-03-12 08:19:18,0.21,0.67,0.00,18.46,21.03,24.28,14.12,45.40,1021.65,2051.00,3208.70,2938.99,3379.31,599.85,608.15,1.92,0000 0000 0000 0000 000000
2018-03-12 08:24:19,0.19,0.68,0.00,18.48,21.07,24.31,14.15,45.37,1021.67,2050.99,3204.45,2936.29,3376.18,599.90,608.20,1.97,0000 0000 0000 0000 000000
2018-03-12 08:29:20,0.22,0.69,0.00,18.51,21.11,24.35,14.18,45.39,1021.88,2050.89,3199.84,2933.10,3372.29,599.92,608.28,2.02,0000 0000 0000 0000 000000
2018-03-12 08:34:22,0.17,0.70,0.00,18.54,21.15,24.41,14.19,45.41,1021.97,2050.27,3194.70,2929.72,3368.29,600.04,608.38,2.07,0000 0000 0000 0000 000000
2018-03-12 08:39:23,0.23,0.71,0.00,18.57,21.18,24.46,14.17,45.36,1021.99,2050.05,3189.54,2926.46,3364.59,599.94,608.35,2.12,0000 0000 0000 0000 000000
2018-03-12 08:44:24,0.23,0.72,0.00,18.57,21.21,24.48,14.15,45.42,1021.99,2050.02,3184.60,2923.22,3360.88,600.01,608.21,2.17,0000 0000 0000 0000 000000
2018-03-12 08:49:26,0.23,0.73,0.00,18.56,21.24,24.52,14.19,45.25,1021.99,2050.00,3179.75,2920.03,3357.05,600.07,608.37,2.22,0000 0000 0000 0000 000000
2018-03-12 08:54:27,0.22,0.75,0.00,18.54,21.27,24.59,14.18,45.38,1021.99,2049.99,3174.91,2916.94,3353.33,600.10,608.44,2.27,0000 0000 0000 0000 000000
2018-03-12 08:59:28,0.23,0.76,0.00,18.54,21.29,24.61,14.22,45.28,1022.00,2049.97,3170.08,2913.82,3349.78,600.04,608.36,2.32,0000 0000 0000 0000 000000
2018-03-12 09:04:30,0.16,0.77,0.00,18.54,21.32,24.64,14.12,45.16,1022.00,2049.72,3165.36,2910.76,3346.24,599.74,608.11,2.37,0000 0000 0000 0000 000000
2018-03-12 09:09:31,0.22,0.78,0.00,18.54,21.34,24.67,14.24,45.20,1022.00,2049.31,3160.51,2907.57,3342.43,600.58,608.87,2.42,0000 0000 0000 0000 000000
2018-03-12 09:14:32,0.21,0.79,0.00,18.53,21.36,24.68,14.23,45.28,1022.02,2049.12,3155.57,2904.34,3338.51,600.15,608.52,2.47,0000 0000 0000 0000 000000
2018-03-12 09:19:33,0.21,0.80,0.00,18.50,21.38,24.74,14.07,45.24,1022.03,2049.03,3150.91,2901.29,3334.88,599.71,608.20,2.52,0000 0000 0000 0000 000000
2018-03-12 09:24:35,0.21,0.81,0.00,18.49,21.39,24.75,14.19,45.23,1022.09,2049.01,3146.53,2898.42,3331.50,599.91,608.41,2.57,0000 0000 0000 0000 000000
2018-03-12 09:29:36,0.21,0.82,0.00,18.48,21.41,24.78,14.24,45.37,1022.13,2049.00,3141.98,2895.54,3328.16,600.13,608.68,2.62,0000 0000 0000 0000 000000
2018-03-12 09:34:37,0.20,0.83,0.00,18.47,21.42,24.78,14.23,45.33,1022.16,2049.00,3137.56,2892.68,3324.93,600.23,608.83,2.67,0000 0000 0000 0000 000000
2018-03-12 09:39:39,0.20,0.84,0.00,18.47,21.44,24.80,14.17,45.36,1022.26,2049.00,3133.40,2889.87,3321.63,599.82,608.48,2.72,0000 0000 0000 0000 000000
2018-03-12 09:44:40,0.18,0.85,0.00,18.47,21.44,24.82,14.20,45.29,1022.42,2048.99,3129.48,2887.37,3318.72,599.76,608.57,2.77,0000 0000 0000 0000 000000
2018-03-12 09:49:41,0.19,0.86,0.00,18.46,21.46,24.87,14.20,45.28,1022.38,2048.97,3125.71,2884.91,3315.78,599.76,608.50,2.82,0000 0000 0000 0000 000000
2018-03-12 09:54:43,0.17,0.87,0.00,18.44,21.47,24.86,14.20,45.28,1022.43,2048.98,3121.91,2882.45,3312.96,600.12,609.04,2.87,0000 0000 0000 0000 000000
2018-03-12 09:59:44,0.15,0.88,0.00,18.44,21.47,24.85,14.17,45.42,1022.42,2048.96,3118.51,2880.35,3310.56,599.56,608.50,2.92,0000 0000 0000 0000 000000
2018-03-12 10:04:45,0.15,0.89,0.00,18.43,21.49,24.88,14.15,45.33,1022.45,2048.97,3115.22,2878.40,3308.00,599.73,608.41,2.97,0000 0000 0000 0000 000000
2018-03-12 10:09:46,0.21,0.89,0.00,18.42,21.49,24.88,14.20,45.44,1022.45,2048.94,3111.09,2875.69,3304.74,599.69,608.61,3.02,0000 0000 0000 0000 000000
2018-03-12 10:14:47,0.23,0.91,0.00,18.39,21.49,24.87,14.17,45.29,1022.37,2048.88,3106.31,2872.59,3301.14,599.76,608.57,3.07,0000 0000 0000 0000 000000
2018-03-12 10:19:48,0.20,0.92,0.00,18.39,21.50,24.91,14.17,45.26,1022.21,2048.51,3101.41,2869.35,3297.41,600.30,609.10,3.12,0000 0000 0000 0000 000000
2018-03-12 10:24:50,0.21,0.93,0.00,18.38,21.50,24.90,14.30,45.37,1022.33,2048.28,3096.62,2866.23,3293.78,600.01,608.91,3.17,0000 0000 0000 0000 000000
2018-03-12 10:29:51,0.22,0.94,0.00,18.37,21.52,24.91,14.16,45.33,1022.34,2048.31,3091.97,2863.31,3290.30,599.59,608.51,3.22,0000 0000 0000 0000 000000
2018-03-12 10:34:52,0.22,0.95,0.00,18.36,21.52,24.90,14.24,45.38,1022.37,2048.12,3087.37,2860.28,3286.79,600.12,608.99,3.27,0000 0000 0000 0000 000000
2018-03-12 10:39:53,0.21,0.96,0.00,18.34,21.51,24.91,14.20,45.39,1022.43,2048.10,3082.93,2857.39,3283.36,599.79,608.70,3.32,0000 0000 0000 0000 000000
2018-03-12 10:44:55,0.21,0.97,0.00,18.33,21.51,24.89,14.26,45.36,1022.44,2048.07,3078.53,2854.52,3280.00,599.94,608.92,3.37,0000 0000 0000 0000 000000
2018-03-12 10:49:56,0.22,0.98,0.00,18.32,21.51,24.89,14.26,45.43,1022.45,2048.05,3073.83,2851.55,3276.50,600.16,609.11,3.42,0000 0000 0000 0000 000000
2018-03-12 10:54:58,0.22,0.99,0.00,18.29,21.50,24.92,14.19,45.33,1022.43,2048.06,3069.43,2848.62,3272.94,599.73,608.88,3.47,0000 0000 0000 0000 000000
2018-03-12 10:59:59,0.22,1.00,0.00,18.28,21.49,24.93,14.22,45.38,1022.42,2048.07,3065.01,2845.67,3269.51,600.23,609.41,3.52,0000 0000 0000 0000 000000
2018-03-12 11:05:00,0.22,1.02,0.00,18.25,21.49,24.91,14.27,45.38,1022.42,2048.04,3060.50,2842.74,3266.06,599.77,609.06,3.57,0000 0000 0000 0000 000000
2018-03-12 11:10:01,0.21,1.03,0.00,18.23,21.49,24.90,14.20,45.37,1022.37,2048.05,3056.08,2839.92,3262.83,599.52,608.74,3.62,0000 0000 0000 0000 000000
2018-03-12 11:15:02,0.21,1.04,0.00,18.21,21.49,24.88,14.25,45.29,1022.37,2048.07,3051.69,2837.10,3259.62,600.32,609.58,3.67,0000 0000 0000 0000 000000
2018-03-12 11:20:04,0.20,1.05,0.00,18.19,21.47,24.92,14.26,45.38,1022.38,2048.06,3047.47,2834.34,3256.41,600.19,609.59,3.72,0000 0000 0000 0000 000000
2018-03-12 11:25:05,0.22,1.06,0.00,18.19,21.47,24.91,14.24,45.33,1022.45,2048.15,3043.25,2831.58,3253.17,600.16,609.64,3.78,0000 0000 0000 0000 000000
2018-03-12 11:30:07,0.21,1.07,0.00,18.17,21.46,24.85,14.23,45.34,1022.44,2048.33,3039.27,2828.99,3250.05,600.18,609.61,3.83,0000 0000 0000 0000 000000
2018-03-12 11:35:08,0.19,1.08,0.00,18.15,21.44,24.85,14.25,45.38,1022.43,2048.32,3035.24,2826.36,3247.04,600.02,609.34,3.88,0000 0000 0000 0000 000000
2018-03-12 11:40:09,0.16,1.09,0.00,18.12,21.44,24.85,14.26,45.38,1022.43,2048.21,3031.61,2824.01,3244.28,600.08,609.59,3.93,0000 0000 0000 0000 000000
2018-03-12 11:45:10,0.19,1.10,0.00,18.09,21.43,24.82,14.22,45.38,1022.45,2048.41,3028.20,2821.81,3241.78,599.78,609.38,3.98,0000 0000 0000 0000 000000
2018-03-12 11:50:11,0.19,1.11,0.00,18.07,21.42,24.86,14.18,45.31,1022.46,2048.81,3025.09,2819.72,3239.42,599.77,609.40,4.03,0000 0000 0000 0000 000000
2018-03-12 11:55:13,0.15,1.12,0.00,18.04,21.41,24.87,14.28,45.33,1022.47,2048.80,3021.99,2817.70,3237.02,600.38,610.05,4.08,0000 0000 0000 0000 000000
2018-03-12 12:00:14,0.15,1.13,0.00,18.02,21.39,24.82,14.29,45.27,1022.48,2048.80,3018.88,2815.63,3234.49,600.27,610.00,4.13,0000 0000 0000 0000 000000
2018-03-12 12:05:16,0.19,1.14,0.00,17.99,21.38,24.86,14.21,45.34,1022.47,2048.88,3015.52,2813.46,3231.95,599.91,609.69,4.18,0000 0000 0000 0000 000000
2018-03-12 12:10:18,0.17,1.14,0.00,17.96,21.37,24.79,14.26,45.42,1022.48,2048.92,3012.24,2811.33,3229.33,599.69,609.53,4.23,0000 0000 0000 0000 000000
2018-03-12 12:15:19,0.17,1.15,0.00,17.94,21.36,24.76,14.19,45.38,1022.48,2048.92,3008.82,2809.09,3226.82,599.78,609.61,4.28,0000 0000 0000 0000 000000
2018-03-12 12:20:20,0.18,1.16,0.00,17.92,21.34,24.74,14.25,45.43,1022.48,2048.97,3005.47,2806.88,3224.23,600.03,609.79,4.33,0000 0000 0000 0000 000000
2018-03-12 12:25:21,0.18,1.17,0.00,17.89,21.33,24.76,14.31,45.57,1022.48,2048.99,3001.98,2804.53,3221.43,599.98,609.88,4.38,0000 0000 0000 0000 000000
2018-03-12 12:30:22,0.16,1.18,0.00,17.87,21.32,24.69,14.17,45.43,1022.47,2048.98,2998.62,2802.39,3218.94,599.75,609.81,4.43,0000 0000 0000 0000 000000
2018-03-12 12:35:23,0.17,1.19,0.00,17.87,21.30,24.70,14.33,45.52,1022.47,2048.98,2995.27,2800.23,3216.47,599.82,609.83,4.48,0000 0000 0000 0000 000000
2018-03-12 12:40:25,0.16,1.20,0.00,17.84,21.29,24.69,14.18,45.55,1022.47,2048.99,2992.12,2798.14,3214.06,599.71,609.75,4.53,0000 0000 0000 0000 000000
2018-03-12 12:45:26,0.13,1.20,0.00,17.82,21.27,24.69,14.30,45.53,1022.47,2048.99,2989.30,2796.25,3211.89,599.64,609.77,4.58,0000 0000 0000 0000 000000
2018-03-12 12:50:27,0.13,1.21,0.00,17.80,21.25,24.68,14.34,45.38,1022.46,2048.99,2986.79,2794.57,3209.86,600.33,610.52,4.63,0000 0000 0000 0000 000000
2018-03-12 12:55:28,0.13,1.22,0.00,17.77,21.24,24.65,14.26,45.46,1022.46,2048.99,2984.21,2792.82,3207.79,599.98,610.12,4.68,0000 0000 0000 0000 000000
2018-03-12 13:00:29,0.12,1.22,0.00,17.75,21.22,24.58,14.22,45.42,1022.37,2049.00,2981.58,2791.18,3205.85,600.02,610.23,4.73,0000 0000 0000 0000 000000
2018-03-12 13:05:31,0.13,1.23,0.00,17.73,21.19,24.59,14.22,45.40,1022.41,2049.01,2978.96,2789.44,3203.90,599.71,609.98,4.78,0000 0000 0000 0000 000000
2018-03-12 13:10:32,0.14,1.24,0.00,17.69,21.18,24.56,14.16,45.43,1022.44,2049.02,2976.30,2787.71,3201.85,599.71,610.13,4.83,0000 0000 0000 0000 000000
2018-03-12 13:15:33,0.14,1.24,0.00,17.66,21.15,24.50,14.32,45.55,1022.46,2049.03,2973.53,2785.93,3199.84,599.90,610.40,4.88,0000 0000 0000 0000 000000
2018-03-12 13:20:34,0.13,1.25,0.00,17.63,21.13,24.50,14.19,45.38,1022.46,2049.17,2970.95,2784.37,3197.93,600.06,610.53,4.93,0000 0000 0000 0000 000000
2018-03-12 13:25:35,0.14,1.26,0.00,17.59,21.12,24.49,14.31,45.46,1022.33,2049.31,2968.36,2782.63,3195.99,600.07,610.59,4.98,0000 0000 0000 0000 000000
2018-03-12 13:30:37,0.14,1.27,0.00,17.58,21.09,24.46,14.27,45.42,1022.27,2049.45,2965.83,2780.93,3194.07,600.05,610.49,5.03,0000 0000 0000 0000 000000
2018-03-12 13:35:38,0.16,1.27,0.00,17.54,21.07,24.38,14.32,45.38,1022.32,2049.76,2963.27,2779.30,3192.14,600.00,610.57,5.08,0000 0000 0000 0000 000000